Time,TemperatureF,DewpointF,PressureIn,WindDirection,WindDirectionDegrees,WindSpeedMPH,WindSpeedGustMPH,Humidity,HourlyPrecipIn,Conditions,Clouds,dailyrainin,SoftwareType,DateUTC
2013-07-08 00:01:00,70.0,68.0,29.99,North,0,0.0,-999.0,94,-99.99,,,-99.99,,2013-07-08 05:01:00,
2013-07-08 00:22:00,70.0,68.0,29.98,North,0,0.0,-999.0,94,-99.99,,,-99.99,,2013-07-08 05:22:00,
2013-07-08 00:33:00,70.0,66.0,29.98,North,0,0.0,-999.0,88,-99.99,,,-99.99,,2013-07-08 05:33:00,
2013-07-08 00:43:00,70.0,66.0,29.98,North,0,0.0,-999.0,88,-99.99,,,-99.99,,2013-07-08 05:43:00,
2013-07-08 01:01:00,70.0,66.0,29.98,North,0,0.0,-999.0,88,-99.99,,,-99.99,,2013-07-08 06:01:00,
2013-07-08 01:22:00,70.0,66.0,29.98,North,0,0.0,-999.0,88,-99.99,,,-99.99,,2013-07-08 06:22:00,
2013-07-08 01:43:00,70.0,68.0,29.99,North,-999,-999.0,-999.0,94,-99.99,,,-99.99,,2013-07-08 06:43:00,
2013-07-08 01:53:00,70.0,66.0,30.00,North,-999,-999.0,-999.0,88,-99.99,,,-99.99,,2013-07-08 06:53:00,
2013-07-08 02:02:00,70.0,66.0,30.00,North,-999,-999.0,-999.0,88,-99.99,,,-99.99,,2013-07-08 07:02:00,
2013-07-08 02:22:00,70.0,68.0,29.99,North,0,0.0,-999.0,94,-99.99,,,-99.99,,2013-07-08 07:22:00,
2013-07-08 02:34:00,70.0,68.0,29.99,North,0,0.0,-999.0,94,-99.99,,,-99.99,,2013-07-08 07:34:00,
2013-07-08 02:44:00,70.0,68.0,29.99,North,0,0.0,-999.0,94,-99.99,,,-99.99,,2013-07-08 07:44:00,
2013-07-08 03:02:00,70.0,66.0,29.99,North,0,0.0,-999.0,88,-99.99,,,-99.99,,2013-07-08 08:02:00,
2013-07-08 03:22:00,70.0,68.0,29.99,North,0,0.0,-999.0,94,-99.99,,,-99.99,,2013-07-08 08:22:00,
2013-07-08 03:42:00,70.0,66.0,29.99,North,0,0.0,-999.0,88,-99.99,,,-99.99,,2013-07-08 08:42:00,
2013-07-08 04:01:00,70.0,68.0,29.98,North,0,0.0,-999.0,94,-99.99,,,-99.99,,2013-07-08 09:01:00,
2013-07-08 04:22:00,70.0,66.0,29.98,North,10,6.0,-999.0,88,-99.99,,,-99.99,,2013-07-08 09:22:00,
2013-07-08 04:43:00,68.0,66.0,29.97,North,10,5.0,-999.0,93,-99.99,,,-99.99,,2013-07-08 09:43:00,
2013-07-08 05:02:00,68.0,66.0,29.97,North,0,0.0,-999.0,93,-99.99,,,-99.99,,2013-07-08 10:02:00,
2013-07-08 05:22:00,68.0,66.0,29.97,North,0,0.0,-999.0,93,-99.99,,,-99.99,,2013-07-08 10:22:00,
2013-07-08 05:34:00,66.0,64.0,29.98,North,0,0.0,-999.0,93,-99.99,,,-99.99,,2013-07-08 10:34:00,
2013-07-08 05:43:00,66.0,64.0,29.98,North,0,0.0,-999.0,93,-99.99,,,-99.99,,2013-07-08 10:43:00,
2013-07-08 06:02:00,66.0,64.0,29.97,NNE,30,5.0,-999.0,93,-99.99,,,-99.99,,2013-07-08 11:02:00,
2013-07-08 06:22:00,66.0,64.0,29.98,North,0,0.0,-999.0,93,-99.99,,,-99.99,,2013-07-08 11:22:00,
2013-07-08 06:33:00,66.0,64.0,29.99,North,0,0.0,-999.0,93,-99.99,,,-99.99,,2013-07-08 11:33:00,
2013-07-08 06:43:00,66.0,64.0,29.99,North,0,0.0,-999.0,93,-99.99,,,-99.99,,2013-07-08 11:43:00,
2013-07-08 07:01:00,66.0,64.0,29.99,North,0,0.0,-999.0,93,-99.99,,,-99.99,,2013-07-08 12:01:00,
2013-07-08 07:22:00,66.0,64.0,30.01,North,0,0.0,-999.0,93,-99.99,,,-99.99,,2013-07-08 12:22:00,
2013-07-08 07:34:00,68.0,66.0,30.01,North,0,0.0,-999.0,93,-99.99,,,-99.99,,2013-07-08 12:34:00,
2013-07-08 07:43:00,68.0,66.0,30.01,North,0,0.0,-999.0,93,-99.99,,,-99.99,,2013-07-08 12:43:00,
2013-07-08 07:53:00,70.0,66.0,30.02,North,0,0.0,-999.0,88,-99.99,,,-99.99,,2013-07-08 12:53:00,
2013-07-08 08:02:00,70.0,66.0,30.02,North,0,0.0,-999.0,88,-99.99,,,-99.99,,2013-07-08 13:02:00,
2013-07-08 08:22:00,72.0,68.0,30.02,North,0,0.0,-999.0,88,-99.99,,,-99.99,,2013-07-08 13:22:00,
2013-07-08 08:33:00,72.0,68.0,30.02,North,0,0.0,-999.0,88,-99.99,,,-99.99,,2013-07-08 13:33:00,
2013-07-08 08:42:00,72.0,68.0,30.02,North,0,0.0,-999.0,88,-99.99,,,-99.99,,2013-07-08 13:42:00,
2013-07-08 09:02:00,73.0,70.0,30.03,NE,50,5.0,-999.0,88,-99.99,,,-99.99,,2013-07-08 14:02:00,
2013-07-08 09:22:00,75.0,70.0,30.02,ENE,70,5.0,-999.0,83,-99.99,,,-99.99,,2013-07-08 14:22:00,
2013-07-08 09:43:00,77.0,72.0,30.03,North,0,0.0,-999.0,83,-99.99,,,-99.99,,2013-07-08 14:43:00,
2013-07-08 10:02:00,79.0,72.0,30.03,East,80,5.0,-999.0,78,-99.99,,,-99.99,,2013-07-08 15:02:00,
2013-07-08 10:22:00,79.0,72.0,30.03,ENE,70,7.0,-999.0,78,-99.99,,,-99.99,,2013-07-08 15:22:00,
2013-07-08 10:33:00,81.0,73.0,30.03,East,80,5.0,-999.0,78,-99.99,,,-99.99,,2013-07-08 15:33:00,
2013-07-08 10:43:00,81.0,73.0,30.03,East,80,5.0,-999.0,78,-99.99,,,-99.99,,2013-07-08 15:43:00,
2013-07-08 11:01:00,81.0,72.0,30.02,ENE,70,8.0,-999.0,74,-99.99,,,-99.99,,2013-07-08 16:01:00,
2013-07-08 11:22:00,81.0,72.0,30.03,East,80,7.0,-999.0,74,-99.99,,,-99.99,,2013-07-08 16:22:00,
2013-07-08 11:43:00,82.0,73.0,30.03,East,90,6.0,-999.0,74,-99.99,,,-99.99,,2013-07-08 16:43:00,
2013-07-08 12:07:00,82.0,73.0,30.02,East,80,8.0,-999.0,74,-99.99,,,-99.99,,2013-07-08 17:07:00,
2013-07-08 12:13:00,84.0,73.0,30.03,ENE,70,6.0,-999.0,70,-99.99,,,-99.99,,2013-07-08 17:13:00,
2013-07-08 12:26:00,84.0,73.0,30.03,ENE,70,6.0,-999.0,70,-99.99,,,-99.99,,2013-07-08 17:26:00,
2013-07-08 12:45:00,84.0,73.0,30.03,ENE,60,6.0,-999.0,70,-99.99,,,-99.99,,2013-07-08 17:45:00,
2013-07-08 12:54:00,84.0,72.0,30.02,East,80,6.0,-999.0,65,-99.99,,,-99.99,,2013-07-08 17:54:00,
2013-07-08 13:30:00,84.0,72.0,30.02,North,0,0.0,-999.0,65,-99.99,,,-99.99,,2013-07-08 18:30:00,
2013-07-08 13:39:00,84.0,72.0,30.02,ESE,110,6.0,-999.0,65,-99.99,,,-99.99,,2013-07-08 18:39:00,
2013-07-08 13:48:00,84.0,72.0,30.02,ESE,110,6.0,-999.0,65,-99.99,,,-99.99,,2013-07-08 18:48:00,
2013-07-08 13:55:00,88.0,72.0,30.01,ESE,110,5.0,-999.0,58,-99.99,,,-99.99,,2013-07-08 18:55:00,
2013-07-08 13:56:00,86.0,72.0,30.01,East,100,5.0,-999.0,62,-99.99,,,-99.99,,2013-07-08 18:56:00,
2013-07-08 14:10:00,86.0,72.0,30.01,East,100,5.0,-999.0,62,-99.99,,,-99.99,,2013-07-08 19:10:00,
2013-07-08 14:29:00,86.0,72.0,30.01,East,100,5.0,-999.0,62,-99.99,,,-99.99,,2013-07-08 19:29:00,
2013-07-08 14:36:00,88.0,72.0,30.01,ESE,110,5.0,-999.0,58,-99.99,,,-99.99,,2013-07-08 19:36:00,
2013-07-08 14:49:00,88.0,72.0,30.01,ESE,110,5.0,-999.0,58,-99.99,,,-99.99,,2013-07-08 19:49:00,
2013-07-08 15:29:00,88.0,70.0,30.00,North,0,0.0,-999.0,55,-99.99,,,-99.99,,2013-07-08 20:29:00,
2013-07-08 15:49:00,90.0,70.0,30.00,North,0,0.0,-999.0,52,-99.99,,,-99.99,,2013-07-08 20:49:00,
2013-07-08 16:10:00,88.0,68.0,30.00,North,0,0.0,-999.0,51,-99.99,,,-99.99,,2013-07-08 21:10:00,
2013-07-08 17:12:00,90.0,72.0,29.99,North,0,0.0,-999.0,55,-99.99,,,-99.99,,2013-07-08 22:12:00,
2013-07-08 17:20:00,90.0,70.0,29.98,ESE,120,8.0,-999.0,52,-99.99,,,-99.99,,2013-07-08 22:20:00,
2013-07-08 17:29:00,90.0,70.0,29.98,ESE,120,8.0,-999.0,52,-99.99,,,-99.99,,2013-07-08 22:29:00,
2013-07-08 17:51:00,90.0,70.0,29.98,ESE,120,7.0,-999.0,52,-99.99,,,-99.99,,2013-07-08 22:51:00,
2013-07-08 18:11:00,90.0,72.0,29.98,North,0,0.0,-999.0,55,-99.99,,,-99.99,,2013-07-08 23:11:00,
2013-07-08 18:30:00,90.0,72.0,29.97,ESE,120,5.0,-999.0,55,-99.99,,,-99.99,,2013-07-08 23:30:00,
2013-07-08 18:40:00,90.0,72.0,29.97,North,0,0.0,-999.0,55,-99.99,,,-99.99,,2013-07-08 23:40:00,
2013-07-08 18:50:00,90.0,72.0,29.97,North,0,0.0,-999.0,55,-99.99,,,-99.99,,2013-07-08 23:50:00,
2013-07-08 19:30:00,88.0,73.0,29.96,North,0,0.0,-999.0,62,-99.99,,,-99.99,,2013-07-09 00:30:00,
2013-07-08 20:10:00,88.0,75.0,29.95,North,0,0.0,-999.0,66,-99.99,,,-99.99,,2013-07-09 01:10:00,
2013-07-08 21:22:00,-999.0,-99.9,29.96,SSE,160,5.0,-999.0,74,-99.99,,,-99.99,,2013-07-09 02:22:00,
2013-07-08 21:41:00,82.0,73.0,29.96,North,0,0.0,-999.0,74,-99.99,,,-99.99,,2013-07-09 02:41:00,
2013-07-08 22:10:00,82.0,73.0,29.97,North,0,0.0,-999.0,74,-99.99,,,-99.99,,2013-07-09 03:10:00,
2013-07-08 22:30:00,81.0,72.0,29.97,SSE,150,5.0,-999.0,74,-99.99,,,-99.99,,2013-07-09 03:30:00,
2013-07-08 23:02:00,81.0,72.0,29.97,South,170,5.0,-999.0,74,-99.99,,,-99.99,,2013-07-09 04:02:00,
2013-07-08 23:22:00,81.0,70.0,29.95,North,0,0.0,-999.0,69,-99.99,,,-99.99,,2013-07-09 04:22:00,
2013-07-08 23:42:00,81.0,70.0,29.95,SE,140,5.0,-999.0,69,-99.99,,,-99.99,,2013-07-09 04:42:00,
2013-07-08 23:53:00,81.0,70.0,29.94,SE,140,5.0,-999.0,69,-99.99,,,-99.99,,2013-07-09 04:53:00,